Regional Weather Roundup
Issued by NWS Cleveland, OH

Home | Current Version | Previous Version | Graphics & Text | Print | Product List | Glossary On
Versions: 1 2 3 4 5 6 7 8 9 10 11 12 13 14 15 16 17 18 19 20 21 22 23 24 25 26 27 28 29 30 31 32 33 34 35 36 37 38 39 40 41 42 43 44 45 46 47 48 49 50
000
ASUS41 KCLE 211812
RWRCLE
OHIO REGIONAL WEATHER ROUNDUP
NATIONAL WEATHER SERVICE WILMINGTON, OH
100 PM EST WED FEB 21 2018

NOTE: "FAIR" INDICATES FEW OR NO CLOUDS BELOW 12,000 FEET WITH NO
SIGNIFICANT WEATHER AND/OR OBSTRUCTIONS TO VISIBILITY.

OHZ001>008-015>018-024>027-034-035-043-044-211900-
   NORTHWEST OHIO

CITY           SKY/WX    TMP DP  RH WIND       PRES   REMARKS
DEFIANCE       CLOUDY    38  33  82 N9        30.48R
FINDLAY        LGT RAIN  41  36  82 N10       30.44S
TOLEDO EXPRESS CLOUDY    39  37  92 N8        30.46S
TOLEDO EXEC    LGT RAIN  39  35  86 N6        30.47R
LIMA           LGT RAIN  39  38  96 N10       30.44S
$$

OHZ009>014-019>023-028>033-038-089-211900-
   NORTHEAST OHIO

CITY           SKY/WX    TMP DP  RH WIND       PRES   REMARKS
CLE-HOPKINS    CLOUDY    39  37  92 N16       30.47R
CLE-LAKEFRONT  LGT RAIN  37  34  89 N10       30.46R FOG
CUY CO. ARPT   CLOUDY    39  37  93 N9        30.46R FOG
LORAIN-ELYRIA  LGT RAIN  39  34  82 N12G23    30.45R
ASHTABULA      LGT RAIN  37  36  96 NW9       30.44R
AKRON-CANTON   LGT RAIN  43  39  86 N15       30.38R
WOOSTER        LGT RAIN  42  41  96 N15       30.40R
MANSFIELD      CLOUDY    41  40  96 NW13      30.41R
YOUNGSTOWN     LGT RAIN  40  38  93 NW18      30.39R FOG
$$

OHZ042-051>053-060>062-070>072-077>081-211900-
  SOUTHWEST OHIO

CITY           SKY/WX    TMP DP  RH WIND       PRES   REMARKS
CINC-COVINGTON LGT RAIN  47  47 100 N13       30.40S
CINC-LUNKEN    LGT RAIN  49  46  90 N10       30.42S
HAMILTON       LGT RAIN  47  43  86 N7        30.43R
DAYTON         LGT RAIN  43  42  97 N15       30.43R
WRIGHT-PAT AFB CLOUDY    44  40  86 N12       30.42R
DAYTON GENERAL CLOUDY    46  42  86 N10       30.41R
WILMINGTON     LGT RAIN  47  47 100 N14       30.40R
$$

OHZ036-037-039>041-045>050-054>059-063>069-073>076-082>088-211900-
  CENTRAL AND SOUTHEAST OHIO

CITY           SKY/WX    TMP DP  RH WIND       PRES   REMARKS
COLUMBUS       LGT RAIN  48  47  96 N16       30.38R
OSU AIRPORT    LGT RAIN  46  46 100 NW10      30.40R
BOLTON FIELD   CLOUDY    46  45  93 N13G20    30.40R
RICKENBACK AFB DRIZZLE   49  49  99 N9        30.38R
NEWARK         CLOUDY    53  50  89 N10       30.35S
MARION         LGT RAIN  43  40  89 N13       30.42R
LANCASTER      LGT RAIN  52  50  93 NW13      30.38R
ZANESVILLE     LGT RAIN  58  55  90 VRB3      30.34R FOG
NEW PHILLY     CLOUDY    52  49  89 NW9       30.37R
$$




USA.gov is the U.S. government's official web portal to all federal, state and local government web resources and services.